[[{"header":{"parameterUnit":"m.s-1","parameterCategory":1,"la1":30.2991,"la2":30.254,"lo1":-89.0895,"lo2":-89.0444,"dy":0.0017,"dx":0.0017,"nx":28,"ny":28,"refTime":"2025-08-31T09:00:00:Z","depth":0,"parameterNumber":2,"parameterNumberName":"U-component_of_WINDS"},"data":[0,0,0,0,0,0,0,0,0,0,0,0,0,0,0,0,0,0,0,0,0,0,0,0,0,0,0,0,0,0,0,0,0,0,0,0,0,0,0,0,0,0,0,0,0,0,0,0,0,0,0,0,0,0,0,0,0,0,-2.1647,-2.1648,0,-2.1746,-2.1747,-2.1749,-2.1668,-2.1664,-2.1661,-2.1658,-2.1762,-2.1768,-2.1774,0,0,0,0,0,0,0,0,0,0,0,0,0,-2.1391,-2.1396,-2.1647,-2.1648,-2.165,-2.1746,-2.1747,-2.1749,-2.1668,-2.1664,-2.166,-2.1656,-2.176,-2.1768,-2.1775,0,0,0,0,0,0,0,0,0,0,0,0,0,-2.1497,-2.1398,-2.1647,-2.1621,-2.162,-2.1746,-2.1748,-2.1749,-2.1669,-2.1664,-2.1659,-2.1654,-2.1758,-2.1767,-2.1776,-2.1934,0,0,-2.1803,-2.1807,0,0,0,0,0,0,0,0,-2.1491,-2.1507,-2.1624,-2.1623,-2.1622,-2.1689,-2.1695,-2.1811,-2.167,-2.1651,-2.1658,-2.1652,-2.1742,-2.1752,-2.1782,-2.1939,-2.1943,-2.1804,-2.1809,-2.1813,-2.1816,0,0,0,0,0,0,0,-2.1484,-2.1502,-2.1686,-2.1625,-2.1624,-2.1605,-2.1615,-2.1717,-2.1724,-2.1652,-2.1646,-2.1659,-2.1741,-2.1774,-2.1784,-2.1945,-2.1804,-2.1812,-2.1817,-2.1821,-2.2236,-2.2242,0,0,0,0,0,0,-2.1479,-2.1497,-2.1683,-2.1689,-2.1542,-2.1614,-2.1625,-2.1673,-2.1723,-2.1725,-2.1663,-2.1655,-2.1761,-2.1774,-2.1788,-2.1977,-2.1813,-2.1822,-2.1827,-2.2231,-2.2238,-2.2244,0,0,0,0,0,0,-2.1474,-2.1496,-2.1679,-2.1591,-2.1613,-2.1624,-2.1679,-2.1678,-2.171,-2.1731,-2.1732,-2.1695,-2.1758,-2.1775,-2.1898,-2.198,-2.1826,-2.1834,-2.2224,-2.2233,-2.2241,-2.2357,0,0,0,0,0,0,-2.1467,-2.1495,-2.1555,-2.1593,-2.1618,-2.1788,-2.1684,-2.1683,-2.1726,-2.1716,-2.1762,-2.1765,-2.1755,-2.1885,-2.1907,-2.1989,-2.1841,-2.2217,-2.2228,-2.2238,-2.2346,-2.2369,-2.2388,0,0,0,0,0,-2.1458,-2.1584,-2.1558,-2.1581,-2.1693,-2.1793,-2.1807,-2.1792,-2.1732,-2.1793,-2.1806,-2.1763,-2.1966,-2.1898,-2.1922,-2.2009,-2.2212,-2.2225,-2.2237,-2.2337,-2.2364,-2.2387,0,0,0,0,0,0,-2.1556,-2.1589,-2.156,-2.1703,-2.1745,-2.1779,-2.1855,-2.1822,-2.1883,-2.1871,-2.1851,-2.1862,-2.1992,-2.2012,-2.1935,-2.2165,-2.208,-2.2098,-2.2147,-2.2174,-2.2194,-2.2188,-2.1848,0,0,0,0,0,-2.1594,-2.1671,-2.1696,-2.1819,-2.1842,-2.1845,-2.1888,-2.1872,-2.1916,-2.1934,-2.1956,-2.2002,-2.2076,-2.2125,-2.2194,-2.2347,-2.2358,-2.2419,-2.2439,-2.2456,-2.2474,-2.2557,-2.2586,-2.2286,-2.2286,-2.2285,0,0,-2.1674,-2.1701,-2.1752,-2.1839,-2.1871,-2.1952,-2.1861,-2.1951,-2.2011,-2.1948,-2.2066,-2.2084,-2.2133,-2.2272,-2.2334,-2.2293,-2.2558,-2.2473,-2.2486,-2.2494,-2.2574,-2.2602,-2.2627,-2.2294,-2.2293,-2.2291,0,0,-2.1862,-2.1889,-2.1996,-2.2028,-2.2076,-2.2077,-2.2103,-2.2141,-2.2151,-2.2268,-2.2222,-2.2294,-2.2422,-2.2459,-2.2495,-2.2695,-2.2659,-2.2718,-2.2829,-2.2911,-2.2934,-2.2955,-2.3029,-2.3055,-2.2734,-2.2735,-2.2735,0,-2.1956,-2.2076,-2.2055,-2.2148,-2.2189,-2.2133,-2.2242,-2.2275,-2.2344,-2.2374,-2.2325,-2.2484,-2.2513,-2.2661,-2.271,-2.274,-2.277,-2.2714,-2.2932,-2.2953,-2.2972,-2.3042,-2.307,-2.2742,-2.2741,-2.274,-2.274,0,-2.219,-2.2274,-2.2354,-2.2421,-2.247,-2.2571,-2.2566,-2.2618,-2.2598,-2.2604,-2.2725,-2.2757,-2.2833,-2.2866,-2.2848,-2.3012,-2.2985,-2.2935,-2.285,-2.3008,-2.3074,-2.3101,-2.2752,-2.2749,-2.2747,-2.2746,0,0,-2.2445,-2.2497,-2.2528,-2.2558,-2.2606,-2.2671,-2.2769,-2.2841,-2.2888,-2.2936,-2.3019,-2.3128,-2.3082,-2.3122,-2.3107,-2.3179,-2.3338,-2.312,-2.3121,-2.3162,-2.3524,-2.3563,-2.3594,-2.3313,-2.3318,-2.3322,-2.352,0,-2.2637,-2.2807,-2.279,-2.2952,-2.303,-2.2978,-2.3063,-2.3103,-2.3111,-2.3179,-2.3188,-2.3267,-2.3198,-2.3223,-2.3291,-2.3305,-2.3411,-2.329,-2.3392,-2.3396,-2.3385,-2.3628,-2.367,-2.3856,-2.3545,-2.355,-2.3553,0,-2.2884,-2.294,-2.311,-2.3147,-2.3179,-2.3256,-2.3321,-2.3386,-2.343,-2.3431,-2.3476,-2.3448,-2.3548,-2.3458,-2.3597,-2.3514,-2.3555,-2.3567,-2.3574,-2.3586,-2.3486,-2.3649,-2.3915,-2.3944,-2.3593,-2.359,-2.3587,0,-2.3056,-2.3174,-2.3291,-2.3318,-2.3363,-2.3419,-2.3441,-2.3479,-2.3524,-2.358,-2.361,-2.3678,-2.3716,-2.377,-2.3762,-2.3697,-2.3903,-2.3812,-2.3909,-2.3909,-2.3957,-2.3955,-2.4237,-2.3979,-2.3978,-2.3978,-2.3977,0,-2.3274,-2.338,-2.337,-2.3442,-2.356,-2.354,-2.3657,-2.3672,-2.3707,-2.3782,-2.374,-2.3811,-2.3795,-2.3867,-2.3861,-2.3977,-2.3994,-2.3999,-2.3997,-2.4005,-2.4005,-2.4033,-2.4021,-2.3985,-2.3984,-2.3982,-2.3981,0,-2.3487,-2.3484,-2.3609,-2.364,-2.3651,-2.3737,-2.3764,-2.3833,-2.3837,-2.3933,-2.3954,-2.3961,-2.4043,-2.4039,-2.4132,-2.4128,-2.4272,-2.4253,-2.4258,-2.4255,-2.4352,-2.4344,-2.4665,-2.4706,-2.4419,-2.4422,-2.4424,0,-2.3628,-2.3709,-2.3749,-2.3795,-2.382,-2.3896,-2.3941,-2.3924,-2.3973,-2.4028,-2.4091,-2.4169,-2.423,-2.4364,-2.4378,-2.4449,-2.4434,-2.4541,-2.4444,-2.445,-2.4438,-2.4435,-2.4444,-2.4561,-2.4564,-2.4567,-2.4569,0,-2.3879,-2.3873,-2.3939,-2.4005,-2.406,-2.4111,-2.4158,-2.4199,-2.4186,-2.4244,-2.4326,-2.4374,-2.4468,-2.4547,-2.4615,-2.4638,-2.4603,-2.4598,-2.4625,-2.4636,-2.4636,-2.4639,-2.4313,-2.4592,-2.459,-2.4588,-2.4587,-2.4586,-2.4062,-2.4132,-2.4171,-2.4246,-2.4279,-2.4324,-2.439,-2.4402,-2.447,-2.4545,-2.453,-2.4624,-2.4665,-2.4753,-2.4782,-2.4855,-2.4818,-2.4855,-2.4866,-2.4876,-2.4888,-2.4621,-2.4867,-2.4867,-2.4866,-2.4865,-2.4865,0,-2.4313,-2.4335,-2.4404,-2.4471,-2.453,-2.4489,-2.4538,-2.4592,-2.4674,-2.4715,-2.4776,-2.4872,-2.4947,-2.4966,-2.5039,-2.5095,-2.5081,-2.5115,-2.5112,-2.5119,-2.4917,-2.4888,-2.5125,-2.5125,-2.5125,-2.5125,-2.5125,-2.5125,-2.4451,-2.4567,-2.4566,-2.4698,-2.4719,-2.481,-2.4842,-2.4883,-2.4916,-2.5024,-2.5087,-2.5098,-2.5131,-2.5205,-2.5273,-2.5277,-2.5307,-2.5349,-2.5347,-2.5158,-2.5133,-2.5108,-2.5081,-2.5355,-2.5355,-2.5543,-2.5544,-2.5546]},{"header":{"parameterUnit":"m.s-1","parameterCategory":1,"la1":30.2991,"la2":30.254,"lo1":-89.0895,"lo2":-89.0444,"dy":0.0017,"dx":0.0017,"nx":28,"ny":28,"refTime":"2025-08-31T09:00:00:Z","depth":0,"parameterNumber":3,"parameterNumberName":"V-component_of_WINDS"},"data":[0,0,0,0,0,0,0,0,0,0,0,0,0,0,0,0,0,0,0,0,0,0,0,0,0,0,0,0,0,0,0,0,0,0,0,0,0,0,0,0,0,0,0,0,0,0,0,0,0,0,0,0,0,0,0,0,0,0,-3.1826,-3.1826,0,-3.1828,-3.1828,-3.1828,-3.1775,-3.1774,-3.1772,-3.1771,-3.1773,-3.1775,-3.1776,0,0,0,0,0,0,0,0,0,0,0,0,0,-3.1772,-3.1773,-3.1826,-3.1826,-3.1826,-3.1828,-3.1828,-3.1828,-3.1775,-3.1774,-3.1772,-3.177,-3.1773,-3.1774,-3.1776,0,0,0,0,0,0,0,0,0,0,0,0,0,-3.1787,-3.1774,-3.1826,-3.1799,-3.1797,-3.1828,-3.1828,-3.1828,-3.1776,-3.1774,-3.1771,-3.1769,-3.1772,-3.1774,-3.1776,-3.1832,0,0,-3.1783,-3.1784,0,0,0,0,0,0,0,0,-3.1786,-3.1789,-3.1803,-3.1801,-3.1799,-3.1799,-3.181,-3.183,-3.1776,-3.1784,-3.1771,-3.1768,-3.1784,-3.1785,-3.179,-3.1832,-3.1833,-3.1783,-3.1784,-3.1785,-3.1786,0,0,0,0,0,0,0,-3.1785,-3.1789,-3.1827,-3.1804,-3.1801,-3.1787,-3.1787,-3.1814,-3.1796,-3.1783,-3.1779,-3.178,-3.1782,-3.1788,-3.1789,-3.1833,-3.1783,-3.1785,-3.1786,-3.1787,-3.1918,-3.1921,0,0,0,0,0,0,-3.1788,-3.1788,-3.1826,-3.1827,-3.1787,-3.179,-3.1789,-3.1801,-3.1795,-3.1792,-3.1782,-3.1778,-3.1785,-3.1787,-3.1789,-3.1853,-3.1785,-3.1787,-3.1788,-3.1916,-3.1919,-3.1921,0,0,0,0,0,0,-3.1787,-3.1792,-3.1826,-3.1806,-3.181,-3.1793,-3.1807,-3.1802,-3.1808,-3.1795,-3.1791,-3.1792,-3.1784,-3.1786,-3.1821,-3.1852,-3.1788,-3.179,-3.1914,-3.1917,-3.192,-3.1981,0,0,0,0,0,0,-3.1786,-3.1792,-3.1814,-3.1807,-3.1811,-3.1859,-3.1809,-3.1804,-3.1812,-3.1807,-3.1803,-3.18,-3.1782,-3.1819,-3.1824,-3.1854,-3.1791,-3.1911,-3.1915,-3.1919,-3.1976,-3.1986,-3.1995,0,0,0,0,0,-3.1784,-3.1831,-3.1815,-3.182,-3.1838,-3.1861,-3.1863,-3.1842,-3.1815,-3.1836,-3.1827,-3.18,-3.1848,-3.1823,-3.1828,-3.1859,-3.1909,-3.1914,-3.1919,-3.1972,-3.1984,-3.1994,0,0,0,0,0,0,-3.1842,-3.183,-3.1812,-3.1859,-3.1861,-3.1852,-3.1879,-3.1856,-3.1867,-3.1861,-3.1834,-3.1833,-3.1872,-3.1869,-3.1841,-3.1912,-3.1873,-3.188,-3.1912,-3.1924,-3.1933,-3.1932,-3.1793,0,0,0,0,0,-3.1861,-3.1881,-3.1869,-3.1911,-3.1914,-3.1896,-3.1905,-3.1889,-3.189,-3.1891,-3.1884,-3.1887,-3.1902,-3.1913,-3.1926,-3.1976,-3.1973,-3.2,-3.2009,-3.2016,-3.2022,-3.2046,-3.2057,-3.1938,-3.1938,-3.1938,0,0,-3.1899,-3.1895,-3.1909,-3.1923,-3.1923,-3.1944,-3.1897,-3.1922,-3.1936,-3.1895,-3.1927,-3.1922,-3.1923,-3.1965,-3.1983,-3.1963,-3.2054,-3.2023,-3.2029,-3.203,-3.2052,-3.2063,-3.2073,-3.1941,-3.1941,-3.194,0,0,-3.1978,-3.1978,-3.2012,-3.2013,-3.2013,-3.2001,-3.2009,-3.2003,-3.1998,-3.2029,-3.1998,-3.2015,-3.2042,-3.2043,-3.2048,-3.2125,-3.21,-3.213,-3.2178,-3.2201,-3.2211,-3.2219,-3.2245,-3.2255,-3.2136,-3.2136,-3.2136,0,-3.2026,-3.2056,-3.2032,-3.2058,-3.2064,-3.2027,-3.206,-3.2062,-3.2067,-3.2072,-3.205,-3.2082,-3.208,-3.212,-3.2139,-3.2144,-3.2152,-3.213,-3.2211,-3.2219,-3.2226,-3.2251,-3.2261,-3.214,-3.2139,-3.2139,-3.2139,0,-3.2113,-3.2134,-3.2162,-3.2166,-3.2176,-3.2205,-3.2185,-3.2197,-3.2179,-3.2169,-3.2201,-3.2197,-3.2208,-3.2216,-3.2199,-3.2254,-3.2241,-3.2216,-3.2177,-3.2242,-3.2264,-3.2273,-3.2145,-3.2143,-3.2142,-3.2142,0,0,-3.2231,-3.222,-3.2231,-3.2231,-3.2228,-3.2244,-3.2271,-3.2281,-3.2291,-3.2295,-3.2316,-3.2339,-3.2315,-3.232,-3.2303,-3.2323,-3.2383,-3.2295,-3.2294,-3.231,-3.244,-3.2459,-3.247,-3.2366,-3.2368,-3.2369,-3.244,0,-3.2307,-3.2352,-3.2331,-3.2379,-3.2397,-3.236,-3.2384,-3.2384,-3.2374,-3.2388,-3.2377,-3.2393,-3.2361,-3.2363,-3.2382,-3.2372,-3.2408,-3.2366,-3.2384,-3.2385,-3.2384,-3.2482,-3.2502,-3.2569,-3.2448,-3.245,-3.2451,0,-3.2402,-3.2409,-3.2458,-3.2449,-3.2456,-3.2477,-3.2484,-3.2498,-3.2496,-3.2487,-3.2492,-3.2469,-3.2494,-3.2455,-3.2488,-3.246,-3.2466,-3.2462,-3.2464,-3.2464,-3.2422,-3.2483,-3.2589,-3.2599,-3.2465,-3.2464,-3.2463,0,-3.248,-3.2502,-3.2534,-3.2536,-3.2527,-3.2542,-3.2539,-3.2535,-3.2542,-3.2548,-3.2551,-3.256,-3.2565,-3.2572,-3.2551,-3.2526,-3.2586,-3.2547,-3.2579,-3.2579,-3.2593,-3.2592,-3.27,-3.2599,-3.2599,-3.2599,-3.2598,0,-3.2567,-3.2598,-3.2569,-3.2588,-3.2621,-3.2596,-3.2629,-3.2622,-3.2619,-3.2635,-3.2605,-3.2621,-3.2594,-3.2607,-3.2591,-3.262,-3.2623,-3.2616,-3.2611,-3.2618,-3.2618,-3.2621,-3.2615,-3.2601,-3.2601,-3.26,-3.26,0,-3.2661,-3.2642,-3.2674,-3.2662,-3.2659,-3.2684,-3.2674,-3.2691,-3.2678,-3.27,-3.2703,-3.2684,-3.2698,-3.2678,-3.269,-3.268,-3.2718,-3.2707,-3.2719,-3.2715,-3.2748,-3.2744,-3.286,-3.2873,-3.2765,-3.2766,-3.2767,0,-3.2717,-3.274,-3.2729,-3.2738,-3.2736,-3.2751,-3.2757,-3.2732,-3.274,-3.2738,-3.2755,-3.2766,-3.2774,-3.2797,-3.2784,-3.2793,-3.2781,-3.282,-3.2782,-3.2787,-3.2779,-3.2778,-3.2779,-3.2828,-3.283,-3.2831,-3.2832,0,-3.2817,-3.2806,-3.2817,-3.2823,-3.2831,-3.2835,-3.2837,-3.2846,-3.2819,-3.283,-3.2843,-3.2848,-3.286,-3.287,-3.2875,-3.2871,-3.2847,-3.2844,-3.2851,-3.2858,-3.2863,-3.2859,-3.2739,-3.2841,-3.284,-3.2839,-3.2839,-3.2839,-3.2893,-3.291,-3.2905,-3.2917,-3.2915,-3.2917,-3.2932,-3.292,-3.2931,-3.2938,-3.2922,-3.2939,-3.2935,-3.2939,-3.2937,-3.2949,-3.2932,-3.2943,-3.2946,-3.2949,-3.2953,-3.2862,-3.295,-3.295,-3.295,-3.2949,-3.2949,0,-3.299,-3.2985,-3.2996,-3.2998,-3.3007,-3.2983,-3.2983,-3.2992,-3.3006,-3.3004,-3.3012,-3.3026,-3.3036,-3.3023,-3.303,-3.3042,-3.3031,-3.3045,-3.3043,-3.3042,-3.2969,-3.2961,-3.3054,-3.3054,-3.3054,-3.3054,-3.3054,-3.3054,-3.3042,-3.307,-3.3058,-3.3084,-3.3078,-3.3094,-3.3096,-3.3097,-3.3095,-3.3112,-3.3119,-3.311,-3.3104,-3.311,-3.3117,-3.3113,-3.3117,-3.3134,-3.3126,-3.3058,-3.3048,-3.3038,-3.303,-3.3136,-3.3136,-3.3198,-3.3199,-3.3199]}]]